Weather History for Fort Indiantown Gap, PA

Change the Weather History Date:

Sunday, March 24, 2013

  Actual Average Record
Temperature  
Mean Temperature 34 °F -  
Max Temperature 45 °F 50 °F 62 °F (2003)
Min Temperature 24 °F 34 °F 19 °F (2014)
Degree Days  
Heating Degree Days 30    
Moisture  
Dew Point 19 °F    
Average Humidity 49    
Maximum Humidity 79    
Minimum Humidity 31    
Precipitation  
Precipitation 0.00 in - - ()
Sea Level Pressure  
Sea Level Pressure 29.84 in    
Wind  
Wind Speed 3 mph (NE)    
Max Wind Speed 7 mph    
Max Gust Speed -    
Visibility 10 miles    
Events      
Averages and records for this station are not official NWS values.
T = Trace of Precipitation, MM = Missing Value Source: NWS Daily Summary

Daily Weather History Graph

Daily Weather History Graph

Search for Another Location

Airport:

Trip Planner

Search our weather history database for the weather conditions in past years. The results will help you decide how hot, cold, wet, or windy it might be!

Date:

Astronomy

Mar. 24, 2013 Rise Set
Actual Time 7:02 AM EDT 7:22 PM EDT
Civil Twilight 6:35 AM EDT 7:50 PM EDT
Nautical Twilight 6:03 AM EDT 8:22 PM EDT
Astronomical Twilight 5:30 AM EDT 8:54 PM EDT
Moon 4:48 PM EDT (3/24) 5:12 AM EDT (3/24)
Length of Visible Light 13h 14m
Length of Day
12h 20m
Waxing Gibbous, 91% of the Moon is Illuminated
Mar 24
Waxing Gibbous
Mar 27
Full
Apr 3
Last Quarter
Apr 10
New
Apr 18
First Quarter

Hourly Weather History & Observations

Time (EDT) Temp. Windchill Dew Point Humidity Pressure Visibility Wind Dir Wind Speed Gust Speed Precip Events Conditions
12:55 AM 34.2 °F - 16.5 °F 49% 29.99 in 10.0 mi Calm Calm - N/A   Clear
1:55 AM 34.5 °F 30.4 °F 16.0 °F 47% 29.96 in 10.0 mi NNW 4.6 mph - N/A   Clear
2:55 AM 33.3 °F 30.2 °F 16.9 °F 51% 29.98 in 10.0 mi West 3.5 mph - N/A   Clear
3:55 AM 30.2 °F 26.7 °F 17.8 °F 60% 29.97 in 10.0 mi West 3.5 mph - N/A   Clear
4:55 AM 25.9 °F 18.2 °F 19.4 °F 76% 29.98 in 10.0 mi West 6.9 mph - N/A   Partly Cloudy
5:55 AM 27.1 °F 23.2 °F 19.0 °F 72% 29.99 in 10.0 mi Variable 3.5 mph - N/A   Mostly Cloudy
6:55 AM 24.6 °F - 19.0 °F 79% 29.99 in 10.0 mi Calm Calm - N/A   Mostly Cloudy
7:55 AM 25.9 °F - 20.3 °F 79% 30.01 in 10.0 mi Calm Calm - N/A   Mostly Cloudy
8:55 AM 36.3 °F - 19.2 °F 50% 29.99 in 10.0 mi Calm Calm - N/A   Clear
9:55 AM 37.8 °F 33.3 °F 18.5 °F 46% 29.96 in 10.0 mi Variable 5.8 mph - N/A   Clear
10:55 AM 39.6 °F 35.4 °F 17.4 °F 41% 29.92 in 10.0 mi North 5.8 mph - N/A   Clear
11:55 AM 41.9 °F 39.0 °F 16.5 °F 36% 29.87 in 10.0 mi North 4.6 mph - N/A   Scattered Clouds
12:55 PM 42.8 °F 39.3 °F 17.1 °F 36% 29.86 in 10.0 mi Variable 5.8 mph - N/A   Mostly Cloudy
1:55 PM 44.8 °F 41.0 °F 16.7 °F 32% 29.79 in 10.0 mi Variable 6.9 mph - N/A   Scattered Clouds
2:55 PM 44.6 °F 42.2 °F 16.0 °F 32% 29.75 in 10.0 mi ESE 4.6 mph - N/A   Scattered Clouds
3:55 PM 45.9 °F 42.3 °F 17.1 °F 32% 29.73 in 10.0 mi East 6.9 mph - N/A   Partly Cloudy
4:55 PM 45.0 °F 42.6 °F 15.6 °F 31% 29.73 in 10.0 mi ESE 4.6 mph - N/A   Mostly Cloudy
5:55 PM 44.1 °F - 16.7 °F 33% 29.71 in 10.0 mi Calm Calm - N/A   Partly Cloudy
6:55 PM 43.2 °F - 18.1 °F 37% 29.70 in 10.0 mi Calm Calm - N/A   Scattered Clouds
7:55 PM 41.7 °F - 21.0 °F 44% 29.73 in 10.0 mi Calm Calm - N/A   Clear
8:55 PM 38.8 °F - 24.8 °F 57% 29.72 in 10.0 mi Calm Calm - N/A   Clear
9:55 PM 38.1 °F 35.7 °F 25.3 °F 60% 29.71 in 10.0 mi NE 3.5 mph - N/A   Clear
10:55 PM 39.9 °F 36.7 °F 22.1 °F 49% 29.68 in 10.0 mi ENE 4.6 mph - 0.00 in   Light Drizzle
11:18 PM 41.0 °F 36.4 °F 21.2 °F 45% 29.67 in 10.0 mi ENE 6.9 mph - N/A   Partly Cloudy
11:55 PM 40.3 °F 36.3 °F 21.0 °F 46% 29.68 in 10.0 mi East 5.8 mph - 0.00 in   Scattered Clouds